TimeEDT,TemperatureF,Dew PointF,Humidity,Sea Level PressureIn,VisibilityMPH,Wind Direction,Wind SpeedMPH,Gust SpeedMPH,PrecipitationIn,Events,Conditions,WindDirDegrees,DateUTC
12:53 AM,23.0,15.1,72,30.34,10.0,Calm,Calm,-,N/A,,Clear,0,2013-04-07 04:53:00
1:53 AM,21.9,15.1,75,30.33,10.0,Calm,Calm,-,N/A,,Clear,0,2013-04-07 05:53:00
2:53 AM,21.9,16.0,78,30.31,10.0,Calm,Calm,-,N/A,,Clear,0,2013-04-07 06:53:00
3:53 AM,21.0,15.1,78,30.31,10.0,Calm,Calm,-,N/A,,Clear,0,2013-04-07 07:53:00
4:53 AM,21.0,15.1,78,30.32,10.0,Calm,Calm,-,N/A,,Clear,0,2013-04-07 08:53:00
5:53 AM,21.0,16.0,81,30.32,10.0,Calm,Calm,-,N/A,,Clear,0,2013-04-07 09:53:00
6:53 AM,24.1,19.9,84,30.33,10.0,Calm,Calm,-,N/A,,Clear,0,2013-04-07 10:53:00
7:53 AM,39.9,34.0,79,30.34,10.0,South,3.5,-,N/A,,Clear,180,2013-04-07 11:53:00
8:53 AM,46.0,33.1,61,30.32,10.0,South,6.9,-,N/A,,Clear,180,2013-04-07 12:53:00
9:53 AM,46.9,30.9,54,30.32,10.0,South,11.5,21.9,N/A,,Clear,180,2013-04-07 13:53:00
10:53 AM,48.9,28.9,46,30.30,10.0,South,11.5,19.6,N/A,,Clear,180,2013-04-07 14:53:00
11:53 AM,51.1,33.1,50,30.29,10.0,South,10.4,19.6,N/A,,Partly Cloudy,180,2013-04-07 15:53:00
12:53 PM,51.1,35.1,54,30.25,10.0,SSW,9.2,-,N/A,,Mostly Cloudy,200,2013-04-07 16:53:00
1:53 PM,52.0,36.0,54,30.22,10.0,South,12.7,23.0,N/A,,Clear,180,2013-04-07 17:53:00
2:53 PM,52.0,37.9,59,30.20,10.0,South,13.8,21.9,N/A,,Clear,180,2013-04-07 18:53:00
3:53 PM,50.0,37.9,63,30.15,10.0,South,16.1,25.3,N/A,,Clear,180,2013-04-07 19:53:00
4:53 PM,50.0,39.0,66,30.13,10.0,South,13.8,26.5,N/A,,Clear,180,2013-04-07 20:53:00
5:53 PM,48.0,37.9,68,30.10,10.0,South,15.0,26.5,N/A,,Clear,180,2013-04-07 21:53:00
6:53 PM,46.9,39.0,74,30.08,10.0,South,11.5,23.0,N/A,,Clear,180,2013-04-07 22:53:00
7:53 PM,46.9,39.9,77,30.09,10.0,South,10.4,20.7,N/A,,Clear,180,2013-04-07 23:53:00
8:53 PM,48.0,41.0,77,30.11,10.0,SSW,13.8,20.7,N/A,,Partly Cloudy,200,2013-04-08 00:53:00
9:53 PM,48.0,41.0,77,30.09,10.0,SSW,11.5,19.6,N/A,,Overcast,200,2013-04-08 01:53:00
10:53 PM,46.9,42.1,83,30.08,10.0,SSW,10.4,-,N/A,,Clear,210,2013-04-08 02:53:00
11:53 PM,46.9,43.0,86,30.06,10.0,SW,8.1,17.3,N/A,,Clear,220,2013-04-08 03:53:00